Terminal Aerodrome Forecast
Issued by NWS Twin Cities, MN

Home | Current Version | Previous Version | Graphics & Text | Print | Product List | Glossary On
Versions: 1 2 3 4 5 6 7 8 9 10 11 12 13 14 15 16 17 18 19 20 21 22 23 24 25 26
000
FTUS43 KMPX 140900 AAA
TAFMSP
TAF AMD
KMSP 140900Z 1409/1512 20007KT P6SM BKN070
     FM141300 24008KT P6SM SCT070 SCT200
     FM141900 28009KT P6SM BKN120
     FM150400 32004KT P6SM OVC060=

USA.gov is the U.S. government's official web portal to all federal, state and local government web resources and services.